Olathe New Century, KS

10:38 AM CDT on May 25, 2018 (GMT -0500)
New Century Aircenter

Weather History for KIXD - May, 2013

Change the Weather History Date:

Sunday, May 19, 2013

  Actual Average Record
Temperature  
Mean Temperature 72 °F -  
Max Temperature 82 °F 74 °F 93 °F (1998)
Min Temperature 62 °F 53 °F 46 °F (2002)
Cooling Degree Days 6    
Growing Degree Days 22 (Base 50)    
Moisture  
Dew Point 62 °F    
Average Humidity 78    
Maximum Humidity 94    
Minimum Humidity 62    
Precipitation  
Precipitation 0.53 in - - ()
Sea Level Pressure  
Sea Level Pressure 29.70 in    
Wind  
Wind Speed 13 mph (SSE)    
Max Wind Speed 31 mph    
Max Gust Speed 48 mph    
Visibility 8 miles    
Events Rain , Thunderstorm    
Averages and records for this station are not official NWS values.
T = Trace of Precipitation, MM = Missing Value Source: NWS Daily Summary

Daily Weather History Graph

Daily Weather History Graph

Search for Another Location

Airport or City:

Astronomy

May. 19, 2013 Rise Set
Actual Time 6:03 AM CDT 8:28 PM CDT
Civil Twilight 5:33 AM CDT 8:59 PM CDT
Nautical Twilight 4:55 AM CDT 9:36 PM CDT
Astronomical Twilight 4:14 AM CDT 10:18 PM CDT
Moon 2:37 PM CDT (5/19) 2:24 AM CDT (5/19)
Length of Visible Light 15h 25m
Length of Day
14h 25m
Waxing Gibbous, 65% of the Moon is Illuminated
May 19
Waxing Gibbous
May 24
Full
May 31
Last Quarter
Jun 8
New
Jun 16
First Quarter

Hourly Weather History & Observations

Time (CDT) Temp. Heat Index Dew Point Humidity Pressure Visibility Wind Dir Wind Speed Gust Speed Precip Events Conditions
12:53 AM 75.0 °F - 70.0 °F 84% 29.77 in 5.0 mi SSE 9.2 mph - N/A   Haze
1:30 AM 68.0 °F - 57.2 °F 68% 29.84 in 10.0 mi NW 19.6 mph 29.9 mph 0.00 in Rain Light Rain
1:53 AM 64.9 °F - 57.9 °F 78% 29.80 in 10.0 mi North 11.5 mph - 0.00 in Rain , Thunderstorm Light Rain
2:31 AM 62.6 °F - 60.8 °F 94% 29.83 in 10.0 mi NNE 4.6 mph - 0.02 in Rain , Thunderstorm Light Rain
2:53 AM 63.0 °F - 60.1 °F 90% 29.78 in 7.0 mi NE 13.8 mph - 0.08 in Rain , Thunderstorm Light Thunderstorms and Rain
3:51 AM 62.6 °F - 60.8 °F 94% 29.80 in 10.0 mi East 8.1 mph - 0.00 in   Clear
3:53 AM 62.1 °F - 60.1 °F 93% 29.77 in 10.0 mi East 6.9 mph - 0.00 in   Clear
5:53 AM 63.0 °F - 60.1 °F 90% 29.72 in 10.0 mi ESE 8.1 mph - N/A   Clear
7:23 AM 64.4 °F - 60.8 °F 88% 29.84 in 4.0 mi SSE 12.7 mph - 0.06 in Rain , Thunderstorm Rain
7:38 AM 64.4 °F - 60.8 °F 88% 29.82 in 4.0 mi SE 10.4 mph - 0.11 in Rain Light Rain
7:53 AM 63.0 °F - 61.0 °F 93% 29.74 in 7.0 mi East 10.4 mph - 0.13 in Rain Light Rain
8:53 AM 64.9 °F - 61.0 °F 87% 29.72 in 10.0 mi SE 9.2 mph - 0.01 in   Clear
9:53 AM 71.1 °F - 61.0 °F 70% 29.68 in 10.0 mi SSE 23.0 mph 31.1 mph N/A   Clear
10:53 AM 75.9 °F - 63.0 °F 64% 29.68 in 10.0 mi SSE 20.7 mph 29.9 mph N/A   Clear
11:53 AM 75.9 °F - 64.9 °F 69% 29.69 in 10.0 mi SSE 16.1 mph 27.6 mph N/A   Mostly Cloudy
12:04 PM 75.2 °F - 64.4 °F 69% 29.72 in 10.0 mi SSE 18.4 mph 25.3 mph N/A   Overcast
12:53 PM 75.9 °F - 64.9 °F 69% 29.67 in 10.0 mi SSE 17.3 mph 25.3 mph N/A   Overcast
1:12 PM 78.8 °F - 66.2 °F 65% 29.70 in 10.0 mi SSE 18.4 mph 27.6 mph N/A   Overcast
2:53 PM 80.1 °F 82.7 °F 68.0 °F 67% 29.64 in 9.0 mi SSE 15.0 mph - N/A   Overcast
3:53 PM 81.0 °F 83.3 °F 66.9 °F 62% 29.62 in 9.0 mi South 15.0 mph 24.2 mph N/A   Mostly Cloudy
4:53 PM 81.0 °F 83.3 °F 66.9 °F 62% 29.58 in 9.0 mi South 15.0 mph 24.2 mph N/A   Clear
5:53 PM 78.1 °F - 66.0 °F 66% 29.58 in 8.0 mi South 12.7 mph - N/A   Scattered Clouds
6:53 PM 77.0 °F - 66.0 °F 69% 29.58 in 7.0 mi SSW 11.5 mph 19.6 mph N/A   Mostly Cloudy
7:05 PM 77.0 °F - 66.2 °F 69% 29.62 in 7.0 mi SSW 13.8 mph 18.4 mph N/A Thunderstorm Scattered Clouds
7:26 PM 64.4 °F - 59.0 °F 83% 29.71 in 1.8 mi WSW 31.1 mph 48.3 mph 0.11 in Rain , Thunderstorm Heavy Rain
7:39 PM 62.6 °F - 60.8 °F 94% 29.65 in 3.0 mi WSW 20.7 mph 41.4 mph 0.24 in Rain , Thunderstorm Light Rain
7:53 PM 64.0 °F - 57.9 °F 80% 29.63 in 9.0 mi SW 18.4 mph 28.8 mph 0.25 in Rain , Thunderstorm Light Thunderstorms and Rain
8:41 PM 64.4 °F - 57.2 °F 77% 29.64 in 10.0 mi South 9.2 mph - 0.05 in   Mostly Cloudy
8:53 PM 64.0 °F - 57.9 °F 80% 29.61 in 10.0 mi SSW 9.2 mph - 0.05 in   Clear
9:53 PM 66.0 °F - 55.9 °F 70% 29.63 in 10.0 mi South 15.0 mph 20.7 mph N/A   Clear
10:53 PM 64.9 °F - 57.9 °F 78% 29.65 in 10.0 mi South 4.6 mph - 0.01 in Rain Light Rain
11:53 PM 63.0 °F - 57.9 °F 84% 29.67 in 10.0 mi SSW 5.8 mph - 0.00 in   Clear